Location: Lynch Observatory
(39.9540°N, 75.1861°W)
Time: 18:26:59
(UTC-04:00)

UWE-3 - Pass Details

Date: 30 April 2024
Orbit: 569 x 652 km, 97.8° (Epoch: 28 May)

Event Time Altitude Azimuth Distance (km) Brightness Sun altitude
Rises 03:50:10 0° 8° (N) 2,897 ? -22.0°
Reaches altitude 10° 03:52:22 10° 4° (N) 2,000 ? -21.7°
Maximum altitude 03:56:39 59° 285° (WNW) 733 ? -21.1°
Enters shadow 03:57:11 54° 252° (WSW) 770 ? -21.1°
